• en Suisse
  • Liste des pays
  • À 7 jours
  • Température de l'eau
  • Carte satellitaire
  • Carte météo
  • Widgets météo
  • user-avatar
    Se connecter

    Météo par heure à Serhiivka

    Ce jour, 23 Avril, Lundi

    Heure Température Précipitation Vent Pression Humidité
    00:00 +13°C° 0 mm 2 m/s 744 mmHg 58%
    01:00 +12°C° 0 mm 2 m/s 744 mmHg 60%
    02:00 +12°C° 0 mm 2 m/s 744 mmHg 62%
    03:00 +10°C° 0 mm 2 m/s 744 mmHg 63%
    04:00 +10°C° 0 mm 2 m/s 744 mmHg 64%
    05:00 +10°C° 0 mm 2 m/s 745 mmHg 66%
    06:00 +12°C° 0 mm 2 m/s 745 mmHg 61%
    07:00 +14°C° 0 mm 2 m/s 745 mmHg 57%
    08:00 +15°C° 0 mm 2 m/s 745 mmHg 52%
    09:00 +16°C° 0 mm 2 m/s 746 mmHg 48%
    10:00 +17°C° 0 mm 2 m/s 746 mmHg 44%
    11:00 +18°C° 0 mm 2 m/s 746 mmHg 40%
    12:00 +18°C° 0 mm 2 m/s 746 mmHg 40%
    13:00 +18°C° 0 mm 2 m/s 746 mmHg 39%
    14:00 +18°C° 0 mm 2 m/s 746 mmHg 39%
    15:00 +18°C° 0 mm 2 m/s 746 mmHg 40%
    16:00 +18°C° 0 mm 2 m/s 746 mmHg 41%
    17:00 +18°C° 0 mm 2 m/s 746 mmHg 41%
    18:00 +17°C° 0 mm 2 m/s 746 mmHg 46%
    19:00 +15°C° 0 mm 2 m/s 746 mmHg 50%
    20:00 +14°C° 0 mm 2 m/s 746 mmHg 54%
    21:00 +13°C° 0 mm 2 m/s 746 mmHg 56%
    22:00 +12°C° 0 mm 3 m/s 746 mmHg 57%
    23:00 +11°C° 0 mm 3 m/s 746 mmHg 59%

    Demain, 24 Avril, Mardi

    Heure Température Précipitation Vent Pression Humidité
    00:00 +11°C° 0 mm 3 m/s 746 mmHg 60%
    01:00 +10°C° 0 mm 3 m/s 746 mmHg 61%
    02:00 +10°C° 0 mm 4 m/s 746 mmHg 62%
    03:00 +10°C° 0 mm 4 m/s 746 mmHg 63%
    04:00 +10°C° 0 mm 4 m/s 745 mmHg 65%
    05:00 +8°C° 0 mm 4 m/s 745 mmHg 66%
    06:00 +10°C° 0 mm 5 m/s 745 mmHg 64%
    07:00 +12°C° 0 mm 5 m/s 745 mmHg 62%
    08:00 +14°C° 0 mm 5 m/s 745 mmHg 60%
    09:00 +15°C° 0,2 mm 5 m/s 745 mmHg 61%
    10:00 +16°C° 0,2 mm 5 m/s 744 mmHg 62%
    11:00 +18°C° 0,2 mm 4 m/s 744 mmHg 62%
    12:00 +18°C° 0,6 mm 4 m/s 744 mmHg 67%
    13:00 +17°C° 0,6 mm 4 m/s 744 mmHg 72%
    14:00 +17°C° 0,6 mm 4 m/s 743 mmHg 77%
    15:00 +18°C° 0,4 mm 4 m/s 743 mmHg 77%
    16:00 +18°C° 0,4 mm 4 m/s 743 mmHg 78%
    17:00 +17°C° 0,4 mm 5 m/s 743 mmHg 78%
    18:00 +17°C° 0 mm 4 m/s 744 mmHg 80%
    19:00 +15°C° 0 mm 4 m/s 744 mmHg 82%
    20:00 +14°C° 0 mm 3 m/s 744 mmHg 84%
    21:00 +13°C° 0 mm 3 m/s 744 mmHg 83%
    22:00 +13°C° 0 mm 3 m/s 745 mmHg 81%
    23:00 +12°C° 0 mm 3 m/s 745 mmHg 79%

    Après-demain, 25 Avril, Mercredi

    Heure Température Précipitation Vent Pression Humidité
    00:00 +11°C° 0 mm 3 m/s 745 mmHg 79%
    01:00 +11°C° 0 mm 3 m/s 745 mmHg 79%
    02:00 +10°C° 0 mm 2 m/s 746 mmHg 79%
    03:00 +10°C° 0 mm 2 m/s 746 mmHg 79%
    04:00 +10°C° 0 mm 2 m/s 746 mmHg 80%
    05:00 +9°C° 0 mm 2 m/s 746 mmHg 81%
    06:00 +12°C° 0 mm 2 m/s 746 mmHg 75%
    07:00 +14°C° 0 mm 2 m/s 746 mmHg 69%
    08:00 +16°C° 0 mm 2 m/s 747 mmHg 64%
    09:00 +18°C° 0 mm 3 m/s 747 mmHg 58%
    10:00 +19°C° 0 mm 3 m/s 747 mmHg 53%
    11:00 +21°C° 0 mm 4 m/s 747 mmHg 48%
    12:00 +22°C° 0 mm 4 m/s 746 mmHg 46%
    13:00 +23°C° 0 mm 4 m/s 746 mmHg 44%
    14:00 +23°C° 0 mm 4 m/s 746 mmHg 41%
    15:00 +23°C° 0 mm 4 m/s 745 mmHg 42%
    16:00 +23°C° 0 mm 4 m/s 745 mmHg 44%
    17:00 +24°C° 0 mm 3 m/s 745 mmHg 45%
    18:00 +22°C° 0 mm 3 m/s 745 mmHg 50%
    19:00 +20°C° 0 mm 3 m/s 744 mmHg 55%
    20:00 +18°C° 0 mm 2 m/s 744 mmHg 60%
    21:00 +18°C° 0 mm 3 m/s 744 mmHg 62%
    22:00 +17°C° 0 mm 3 m/s 744 mmHg 65%
    23:00 +17°C° 0 mm 4 m/s 744 mmHg 67%

    26 Avril, Jeudi

    Heure Température Précipitation Vent Pression Humidité
    00:00 +17°C° 0 mm 4 m/s 744 mmHg 70%
    01:00 +15°C° 0 mm 5 m/s 744 mmHg 73%
    02:00 +15°C° 0 mm 5 m/s 744 mmHg 76%
    03:00 +15°C° 0 mm 5 m/s 743 mmHg 79%
    04:00 +14°C° 0 mm 4 m/s 743 mmHg 82%
    05:00 +13°C° 0 mm 4 m/s 743 mmHg 85%
    06:00 +15°C° 0 mm 4 m/s 744 mmHg 79%
    07:00 +18°C° 0 mm 4 m/s 744 mmHg 74%
    08:00 +19°C° 0 mm 4 m/s 744 mmHg 68%
    09:00 +21°C° 0 mm 4 m/s 744 mmHg 62%
    10:00 +23°C° 0 mm 5 m/s 744 mmHg 56%
    11:00 +25°C° 0 mm 5 m/s 745 mmHg 50%
    12:00 +25°C° 0 mm 5 m/s 745 mmHg 48%
    13:00 +24°C° 0 mm 6 m/s 745 mmHg 47%
    14:00 +24°C° 0 mm 6 m/s 745 mmHg 46%
    15:00 +25°C° 0 mm 5 m/s 745 mmHg 47%
    16:00 +23°C° 0 mm 5 m/s 745 mmHg 48%
    17:00 +22°C° 0 mm 4 m/s 745 mmHg 49%
    18:00 +21°C° 0 mm 3 m/s 745 mmHg 53%
    19:00 +19°C° 0 mm 3 m/s 746 mmHg 58%
    20:00 +17°C° 0 mm 2 m/s 746 mmHg 62%
    21:00 +17°C° 0 mm 2 m/s 746 mmHg 63%
    22:00 +16°C° 0 mm 2 m/s 746 mmHg 64%
    23:00 +15°C° 0 mm 2 m/s 746 mmHg 65%

    27 Avril, Vendredi

    Heure Température Précipitation Vent Pression Humidité
    00:00 +15°C° 0,1 mm 2 m/s 746 mmHg 66%
    01:00 +15°C° 0,1 mm 2 m/s 746 mmHg 68%
    02:00 +13°C° 0,1 mm 3 m/s 746 mmHg 70%
    03:00 +13°C° 0,2 mm 3 m/s 746 mmHg 72%
    04:00 +13°C° 0,2 mm 3 m/s 746 mmHg 74%
    05:00 +13°C° 0,2 mm 3 m/s 745 mmHg 77%
    06:00 +14°C° 0,2 mm 4 m/s 745 mmHg 74%
    07:00 +16°C° 0,2 mm 5 m/s 745 mmHg 72%
    08:00 +17°C° 0,2 mm 6 m/s 745 mmHg 69%
    09:00 +20°C° 0,1 mm 7 m/s 745 mmHg 64%
    10:00 +22°C° 0,1 mm 7 m/s 745 mmHg 59%
    11:00 +24°C° 0,1 mm 7 m/s 745 mmHg 54%
    12:00 +24°C° 0,1 mm 7 m/s 744 mmHg 50%
    13:00 +26°C° 0,1 mm 7 m/s 744 mmHg 47%
    14:00 +27°C° 0,1 mm 7 m/s 744 mmHg 43%
    15:00 +26°C° 0,7 mm 6 m/s 744 mmHg 49%
    16:00 +25°C° 0,7 mm 5 m/s 744 mmHg 55%
    17:00 +23°C° 0,7 mm 4 m/s 744 mmHg 61%
    18:00 +21°C° 0,4 mm 4 m/s 744 mmHg 69%
    19:00 +19°C° 0,4 mm 4 m/s 745 mmHg 76%
    20:00 +18°C° 0,4 mm 4 m/s 745 mmHg 83%
    21:00 +17°C° 0 mm 4 m/s 746 mmHg 84%
    22:00 +15°C° 0 mm 4 m/s 746 mmHg 86%
    23:00 +14°C° 0 mm 3 m/s 746 mmHg 87%

    28 Avril, Samedi

    Heure Température Précipitation Vent Pression Humidité
    00:00 +13°C° 0 mm 3 m/s 747 mmHg 87%
    01:00 +13°C° 0 mm 3 m/s 747 mmHg 88%
    02:00 +12°C° 0 mm 3 m/s 747 mmHg 88%
    03:00 +12°C° 0 mm 3 m/s 747 mmHg 89%
    04:00 +11°C° 0 mm 3 m/s 748 mmHg 90%
    05:00 +11°C° 0 mm 3 m/s 748 mmHg 92%
    06:00 +12°C° 0 mm 4 m/s 748 mmHg 85%
    07:00 +13°C° 0 mm 4 m/s 749 mmHg 79%
    08:00 +14°C° 0 mm 4 m/s 749 mmHg 72%
    09:00 +17°C° 0 mm 4 m/s 749 mmHg 65%
    10:00 +18°C° 0 mm 4 m/s 749 mmHg 57%
    11:00 +20°C° 0 mm 4 m/s 749 mmHg 50%
    12:00 +20°C° 0 mm 4 m/s 749 mmHg 47%
    13:00 +21°C° 0 mm 3 m/s 749 mmHg 44%
    14:00 +22°C° 0 mm 3 m/s 749 mmHg 41%
    15:00 +22°C° 0 mm 3 m/s 749 mmHg 42%
    16:00 +22°C° 0 mm 3 m/s 748 mmHg 44%
    17:00 +21°C° 0 mm 3 m/s 748 mmHg 45%
    18:00 +20°C° 0 mm 3 m/s 748 mmHg 50%
    19:00 +18°C° 0 mm 3 m/s 749 mmHg 54%
    20:00 +16°C° 0 mm 3 m/s 749 mmHg 59%
    21:00 +16°C° 0 mm 3 m/s 749 mmHg 59%
    22:00 +14°C° 0 mm 3 m/s 749 mmHg 59%
    23:00 +13°C° 0 mm 4 m/s 749 mmHg 59%
    Voir plus